This is the latest recevied weather packets stored in our database for station/object K5SVV. If no packets are shown the sender has not sent any weather packets the latest 10 day(s).
| Time | Temp. | Humidity | Pressure | Rain* | Wind** | Luminosity | Snow |
|---|---|---|---|---|---|---|---|
| 1788141990 | 87° F | 50% | 759.6 mmHg | 0 in | - | 0 W/m² | - |
| 1788141684 | 88° F | 50% | 759.8 mmHg | 0 in | - | 0 W/m² | - |
| 1788141381 | 88° F | 49% | 759.6 mmHg | 0 in | - | 0 W/m² | - |
| 1788141080 | 88° F | 49% | 759.5 mmHg | 0 in | - | 0 W/m² | - |
| 1788140775 | 89° F | 48% | 759.4 mmHg | 0 in | - | 0 W/m² | - |
| 1788140471 | 89° F | 48% | 759.4 mmHg | 0 in | - | 0 W/m² | - |
| 1788140167 | 89° F | 47% | 759.3 mmHg | 0 in | - | 0 W/m² | - |
| 1788139866 | 90° F | 47% | 759.2 mmHg | 0 in | - | 0 W/m² | - |
| 1788139561 | 90° F | 47% | 759.3 mmHg | 0 in | - | 0 W/m² | - |
| 1788139256 | 90° F | 46% | 759.5 mmHg | 0 in | - | 0 W/m² | - |
| 1788138955 | 91° F | 46% | 759.3 mmHg | 0 in | - | 0 W/m² | - |
| 1788138651 | 91° F | 46% | 759.3 mmHg | 0 in | - | 0 W/m² | - |
| 1788138346 | 91° F | 46% | 759.4 mmHg | 0 in | - | 0 W/m² | - |
| 1788138042 | 92° F | 46% | 759.3 mmHg | 0 in | - | 0 W/m² | - |
| 1788137737 | 92° F | 45% | 759.3 mmHg | 0 in | - | 2 W/m² | - |
| 1788137436 | 93° F | 45% | 759.2 mmHg | 0 in | - | 4 W/m² | - |
| 1788137133 | 93° F | 45% | 759.4 mmHg | 0 in | - | 8 W/m² | - |
| 1788136828 | 93° F | 44% | 759.3 mmHg | 0 in | - | 12 W/m² | - |
| 1788136524 | 94° F | 43% | 759.3 mmHg | 0 in | - | 17 W/m² | - |
| 1788136220 | 94° F | 43% | 759.1 mmHg | 0 in | - | 20 W/m² | - |
| 1788135918 | 95° F | 42% | 759.2 mmHg | 0 in | - | 25 W/m² | - |
| 1788135613 | 95° F | 41% | 759.1 mmHg | 0 in | - | 28 W/m² | - |
| 1788135309 | 95° F | 41% | 759.1 mmHg | 0 in | - | 31 W/m² | - |
| 1788134999 | 96° F | 40% | 759.1 mmHg | 0 in | - | 35 W/m² | - |
| 1788134695 | 96° F | 41% | 759.1 mmHg | 0 in | - | 42 W/m² | - |
* Rain latest hour (hover to see other rain measurements)
** Current wind speed in m/s (hover to see current wind gust speed)